,,,PA_Meas_PMT16A,,PR_Meas_QMR101_102,,RH_Meas_QMH101,,SR_Meas_QMS101,,TA_Meas_QMH101,,GenWind,,GenWind,
date,time,status,PA,status,PR,status,RH,status,SR,status,TA,status,DirAvg,status,SpdAvg,
2012-06-03, 00:00:04,VALID,1002.43,VALID,0,VALID,94.1862,VALID,0,VALID,24.5193,VALID,356,VALID,0,
2012-06-03, 00:01:04,VALID,1002.39,VALID,0,VALID,94.1709,VALID,0,VALID,24.5193,VALID,356,VALID,0,
2012-06-03, 00:02:04,VALID,1002.36,VALID,0,VALID,94.209,VALID,0,VALID,24.5388,VALID,357,VALID,0,
2012-06-03, 00:03:04,VALID,1002.37,VALID,0,VALID,94.2319,VALID,0,VALID,24.5406,VALID,358,VALID,0,
2012-06-03, 00:04:04,VALID,1002.32,VALID,0,VALID,94.2472,VALID,0,VALID,24.5601,VALID,358,VALID,0,
2012-06-03, 00:05:04,VALID,1002.32,VALID,0,VALID,94.2167,VALID,0,VALID,24.5193,VALID,358,VALID,0,
2012-06-03, 00:06:04,VALID,1002.33,VALID,0,VALID,94.1862,VALID,0,VALID,24.4785,VALID,358,VALID,0,
2012-06-03, 00:07:04,VALID,1002.31,VALID,0,VALID,94.2014,VALID,0.0815089,VALID,24.4998,VALID,357,VALID,0,
2012-06-03, 00:08:04,VALID,1002.28,VALID,0,VALID,94.1938,VALID,0,VALID,24.5212,VALID,357,VALID,0,
2012-06-03, 00:09:04,VALID,1002.3,VALID,0,VALID,94.2472,VALID,0,VALID,24.5212,VALID,357,VALID,0,
2012-06-03, 00:10:04,VALID,1002.27,VALID,0,VALID,94.2319,VALID,0,VALID,24.5193,VALID,357,VALID,0,
2012-06-03, 00:11:04,VALID,1002.29,VALID,0,VALID,94.2243,VALID,0,VALID,24.5212,VALID,357,VALID,0,
2012-06-03, 00:12:04,VALID,1002.31,VALID,0,VALID,94.1938,VALID,0,VALID,24.5193,VALID,357,VALID,0,
2012-06-03, 00:13:04,VALID,1002.32,VALID,0,VALID,94.1709,VALID,0,VALID,24.4998,VALID,357,VALID,0,
2012-06-03, 00:14:04,VALID,1002.32,VALID,0,VALID,94.1556,VALID,0,VALID,24.5017,VALID,357,VALID,0,
2012-06-03, 00:15:04,VALID,1002.33,VALID,0,VALID,94.1328,VALID,0,VALID,24.4804,VALID,357,VALID,0,
2012-06-03, 00:16:04,VALID,1002.33,VALID,0,VALID,94.1022,VALID,0,VALID,24.4804,VALID,357,VALID,0,
2012-06-03, 00:17:04,VALID,1002.32,VALID,0,VALID,94.1099,VALID,0,VALID,24.4804,VALID,357,VALID,0,
2012-06-03, 00:18:04,VALID,1002.34,VALID,0,VALID,94.1175,VALID,0,VALID,24.5017,VALID,357,VALID,0,
2012-06-03, 00:19:04,VALID,1002.32,VALID,0,VALID,94.1251,VALID,0,VALID,24.5017,VALID,357,VALID,0,
2012-06-03, 00:20:04,VALID,1002.34,VALID,0,VALID,94.1251,VALID,0,VALID,24.5017,VALID,356,VALID,0,
2012-06-03, 00:21:04,VALID,1002.34,VALID,0,VALID,94.1022,VALID,0,VALID,24.4804,VALID,356,VALID,0,
2012-06-03, 00:22:04,VALID,1002.33,VALID,0,VALID,94.1022,VALID,0,VALID,24.4804,VALID,356,VALID,0,
2012-06-03, 00:23:04,VALID,1002.34,VALID,0,VALID,94.148,VALID,0,VALID,24.4609,VALID,356,VALID,0,
2012-06-03, 00:24:04,VALID,1002.31,VALID,0,VALID,94.1709,VALID,0.0815089,VALID,24.4804,VALID,356,VALID,0,
2012-06-03, 00:25:04,VALID,1002.3,VALID,0,VALID,94.0946,VALID,0,VALID,24.4804,VALID,356,VALID,0,
2012-06-03, 00:26:04,VALID,1002.27,VALID,0,VALID,94.1099,VALID,0,VALID,24.5212,VALID,356,VALID,0,
2012-06-03, 00:27:04,VALID,1002.25,VALID,0,VALID,94.1328,VALID,0,VALID,24.5212,VALID,354,VALID,0,
2012-06-03, 00:28:04,VALID,1002.23,VALID,0,VALID,94.1251,VALID,0,VALID,24.5601,VALID,351,VALID,0.558984,
2012-06-03, 00:29:04,VALID,1002.21,VALID,0,VALID,94.0336,VALID,0,VALID,24.5601,VALID,352,VALID,0.712109,
2012-06-03, 00:30:04,VALID,1002.18,VALID,0,VALID,93.9725,VALID,0,VALID,24.5796,VALID,352,VALID,0.416797,
2012-06-03, 00:31:04,VALID,1002.15,VALID,0,VALID,93.942,VALID,0,VALID,24.5796,VALID,352,VALID,0.491797,
2012-06-03, 00:32:04,VALID,1002.16,VALID,0,VALID,93.8352,VALID,0,VALID,24.5796,VALID,352,VALID,0.708203,
2012-06-03, 00:33:04,VALID,1002.13,VALID,0,VALID,93.7284,VALID,0,VALID,24.5601,VALID,346,VALID,0.582812,
2012-06-03, 00:34:04,VALID,1002.1,VALID,0,VALID,93.8123,VALID,0,VALID,24.5796,VALID,348,VALID,0.630859,
2012-06-03, 00:35:04,VALID,1002.08,VALID,0,VALID,93.8429,VALID,0,VALID,24.638,VALID,351,VALID,0.0121094,
2012-06-03, 00:36:04,VALID,1002.08,VALID,0,VALID,93.7361,VALID,0,VALID,24.6574,VALID,351,VALID,0,
2012-06-03, 00:37:04,VALID,1002.05,VALID,0,VALID,93.614,VALID,0,VALID,24.6556,VALID,351,VALID,0,
2012-06-03, 00:38:04,VALID,1002.08,VALID,0,VALID,93.5224,VALID,0,VALID,24.6556,VALID,351,VALID,0,
2012-06-03, 00:39:04,VALID,1002.07,VALID,0,VALID,93.408,VALID,0,VALID,24.6361,VALID,351,VALID,0,
2012-06-03, 00:40:04,VALID,1002.03,VALID,0,VALID,93.2402,VALID,0,VALID,24.6361,VALID,351,VALID,0,
2012-06-03, 00:41:04,VALID,1002.05,VALID,0,VALID,93.2631,VALID,0,VALID,24.6361,VALID,351,VALID,0,
2012-06-03, 00:42:04,VALID,1002.02,VALID,0,VALID,93.2859,VALID,0,VALID,24.6556,VALID,351,VALID,0,
2012-06-03, 00:43:04,VALID,1001.99,VALID,0,VALID,93.2173,VALID,0,VALID,24.6556,VALID,351,VALID,0,
2012-06-03, 00:44:04,VALID,1002.01,VALID,0,VALID,93.1715,VALID,0,VALID,24.6574,VALID,351,VALID,0,
2012-06-03, 00:45:04,VALID,1001.99,VALID,0,VALID,93.1257,VALID,0,VALID,24.6556,VALID,351,VALID,0,
2012-06-03, 00:46:04,VALID,1002.01,VALID,0,VALID,93.1563,VALID,0,VALID,24.6361,VALID,351,VALID,0,
2012-06-03, 00:47:04,VALID,1001.99,VALID,0,VALID,93.0723,VALID,0,VALID,24.6556,VALID,351,VALID,0,
2012-06-03, 00:48:04,VALID,1001.99,VALID,0,VALID,93.0495,VALID,0.0815089,VALID,24.6361,VALID,351,VALID,0,
2012-06-03, 00:49:04,VALID,1001.98,VALID,0,VALID,93.1639,VALID,0,VALID,24.6556,VALID,351,VALID,0,
2012-06-03, 00:50:04,VALID,1001.99,VALID,0,VALID,93.0342,VALID,0,VALID,24.6556,VALID,351,VALID,0,
2012-06-03, 00:51:04,VALID,1001.96,VALID,0,VALID,93.0266,VALID,0,VALID,24.6556,VALID,351,VALID,0,
2012-06-03, 00:52:04,VALID,1001.93,VALID,0,VALID,93.0495,VALID,0,VALID,24.6556,VALID,351,VALID,0,
2012-06-03, 00:53:04,VALID,1001.94,VALID,0,VALID,93.0571,VALID,0,VALID,24.6964,VALID,351,VALID,0,
2012-06-03, 00:54:04,VALID,1001.9,VALID,0,VALID,92.9884,VALID,0,VALID,24.675,VALID,351,VALID,0,
2012-06-03, 00:55:04,VALID,1001.89,VALID,0,VALID,92.813,VALID,0,VALID,24.6769,VALID,351,VALID,0,
2012-06-03, 00:56:04,VALID,1001.9,VALID,0,VALID,92.8511,VALID,0,VALID,24.6556,VALID,349,VALID,0,
2012-06-03, 00:57:04,VALID,1001.84,VALID,0,VALID,92.9274,VALID,0,VALID,24.6964,VALID,349,VALID,0,
2012-06-03, 00:58:04,VALID,1001.83,VALID,0,VALID,92.8969,VALID,0,VALID,24.6945,VALID,349,VALID,0,
2012-06-03, 00:59:04,VALID,1001.79,VALID,0,VALID,92.7977,VALID,0,VALID,24.714,VALID,349,VALID,0,
2012-06-03, 01:00:04,VALID,1001.76,VALID,0,VALID,92.6146,VALID,0,VALID,24.7335,VALID,349,VALID,0,
2012-06-03, 01:01:04,VALID,1001.78,VALID,0,VALID,92.5383,VALID,0,VALID,24.7353,VALID,349,VALID,0,
2012-06-03, 01:02:04,VALID,1001.74,VALID,0,VALID,92.4697,VALID,0,VALID,24.714,VALID,349,VALID,0,
2012-06-03, 01:03:04,VALID,1001.75,VALID,0,VALID,92.4925,VALID,0,VALID,24.7353,VALID,350,VALID,0,
2012-06-03, 01:04:04,VALID,1001.77,VALID,0,VALID,92.4544,VALID,0,VALID,24.7159,VALID,350,VALID,0,
2012-06-03, 01:05:04,VALID,1001.75,VALID,0,VALID,92.462,VALID,0,VALID,24.675,VALID,350,VALID,0,
2012-06-03, 01:06:04,VALID,1001.74,VALID,0,VALID,92.4925,VALID,0,VALID,24.6769,VALID,350,VALID,0,
2012-06-03, 01:07:04,VALID,1001.76,VALID,0,VALID,92.5993,VALID,0,VALID,24.6574,VALID,350,VALID,0,
2012-06-03, 01:08:04,VALID,1001.72,VALID,0,VALID,92.5383,VALID,0,VALID,24.6361,VALID,350,VALID,0,
2012-06-03, 01:09:04,VALID,1001.72,VALID,0,VALID,92.6985,VALID,0,VALID,24.6185,VALID,6,VALID,0,
2012-06-03, 01:10:04,VALID,1001.7,VALID,0,VALID,92.8206,VALID,0,VALID,24.5972,VALID,6,VALID,0,
2012-06-03, 01:11:04,VALID,1001.71,VALID,0,VALID,92.8206,VALID,0,VALID,24.6185,VALID,6,VALID,0,
2012-06-03, 01:12:04,VALID,1001.65,VALID,0,VALID,92.8587,VALID,0,VALID,24.6185,VALID,6,VALID,0,
2012-06-03, 01:13:04,VALID,1001.62,VALID,0,VALID,92.9579,VALID,0,VALID,24.599,VALID,6,VALID,0,
2012-06-03, 01:14:04,VALID,1001.59,VALID,0,VALID,93.1181,VALID,0.0815089,VALID,24.599,VALID,6,VALID,0,
2012-06-03, 01:15:04,VALID,1001.58,VALID,0,VALID,93.141,VALID,0,VALID,24.5972,VALID,6,VALID,0,
2012-06-03, 01:16:04,VALID,1001.54,VALID,0,VALID,93.141,VALID,0,VALID,24.5777,VALID,6,VALID,0,
2012-06-03, 01:17:04,VALID,1001.51,VALID,0,VALID,93.1486,VALID,0,VALID,24.5777,VALID,6,VALID,0,
2012-06-03, 01:18:04,VALID,1001.46,VALID,0,VALID,93.1639,VALID,0,VALID,24.5796,VALID,6,VALID,0,
2012-06-03, 01:19:04,VALID,1001.43,VALID,0,VALID,93.1944,VALID,0,VALID,24.5582,VALID,6,VALID,0,
2012-06-03, 01:20:04,VALID,1001.45,VALID,0,VALID,93.1563,VALID,0,VALID,24.5388,VALID,6,VALID,0,
2012-06-03, 01:21:04,VALID,1001.41,VALID,0,VALID,93.1486,VALID,0,VALID,24.5601,VALID,6,VALID,0,
2012-06-03, 01:22:04,VALID,1001.36,VALID,0,VALID,93.1486,VALID,0,VALID,24.5601,VALID,6,VALID,0,
2012-06-03, 01:23:04,VALID,1001.36,VALID,0,VALID,93.1791,VALID,0,VALID,24.5406,VALID,6,VALID,0,
2012-06-03, 01:24:04,VALID,1001.35,VALID,0,VALID,93.2554,VALID,0,VALID,24.5406,VALID,6,VALID,0,
2012-06-03, 01:25:04,VALID,1001.33,VALID,0,VALID,93.3088,VALID,0,VALID,24.4998,VALID,6,VALID,0,
2012-06-03, 01:26:04,VALID,1001.34,VALID,0,VALID,93.2707,VALID,0,VALID,24.5193,VALID,6,VALID,0,
2012-06-03, 01:27:04,VALID,1001.32,VALID,0,VALID,93.2402,VALID,0,VALID,24.5406,VALID,6,VALID,0,
2012-06-03, 01:28:04,VALID,1001.31,VALID,0,VALID,93.1944,VALID,0,VALID,24.5212,VALID,6,VALID,0,
2012-06-03, 01:29:04,VALID,1001.36,VALID,0,VALID,93.1181,VALID,0,VALID,24.5017,VALID,6,VALID,0,
2012-06-03, 01:30:04,VALID,1001.32,VALID,0,VALID,93.1181,VALID,0,VALID,24.4628,VALID,6,VALID,0,
2012-06-03, 01:31:04,VALID,1001.32,VALID,0,VALID,93.1944,VALID,0,VALID,24.4238,VALID,6,VALID,0,
2012-06-03, 01:32:04,VALID,1001.31,VALID,0,VALID,93.3012,VALID,0,VALID,24.4238,VALID,6,VALID,0,
2012-06-03, 01:33:04,VALID,1001.29,VALID,0,VALID,93.408,VALID,0,VALID,24.4238,VALID,6,VALID,0,
2012-06-03, 01:34:04,VALID,1001.3,VALID,0,VALID,93.4004,VALID,0,VALID,24.4043,VALID,6,VALID,0,
2012-06-03, 01:35:04,VALID,1001.28,VALID,0,VALID,93.4614,VALID,0,VALID,24.3849,VALID,6,VALID,0,
2012-06-03, 01:36:04,VALID,1001.27,VALID,0,VALID,93.5987,VALID,0,VALID,24.4043,VALID,6,VALID,0,
2012-06-03, 01:37:04,VALID,1001.23,VALID,0,VALID,93.6674,VALID,0,VALID,24.3636,VALID,6,VALID,0,
2012-06-03, 01:38:04,VALID,1001.2,VALID,0,VALID,93.675,VALID,0,VALID,24.3849,VALID,6,VALID,0,
2012-06-03, 01:39:04,VALID,1001.17,VALID,0,VALID,93.6826,VALID,0,VALID,24.3654,VALID,6,VALID,0,
2012-06-03, 01:40:04,VALID,1001.12,VALID,0,VALID,93.7055,VALID,0,VALID,24.3654,VALID,6,VALID,0,
2012-06-03, 01:41:04,VALID,1001.12,VALID,0,VALID,93.7208,VALID,0,VALID,24.3441,VALID,6,VALID,0,
2012-06-03, 01:42:04,VALID,1001.08,VALID,0,VALID,93.7589,VALID,0,VALID,24.3246,VALID,6,VALID,0,
2012-06-03, 01:43:04,VALID,1001.06,VALID,0,VALID,93.7818,VALID,0,VALID,24.3265,VALID,6,VALID,0,
2012-06-03, 01:44:04,VALID,1001.08,VALID,0,VALID,93.9039,VALID,0,VALID,24.3654,VALID,6,VALID,0,
2012-06-03, 01:45:04,VALID,1001.05,VALID,0,VALID,94.0107,VALID,0,VALID,24.3636,VALID,6,VALID,0,
2012-06-03, 01:46:04,VALID,1001.02,VALID,0,VALID,94.0259,VALID,0,VALID,24.383,VALID,6,VALID,0,
2012-06-03, 01:47:04,VALID,1001.04,VALID,0,VALID,93.9802,VALID,0,VALID,24.383,VALID,6,VALID,0,
2012-06-03, 01:48:04,VALID,1001.08,VALID,0,VALID,93.9344,VALID,0,VALID,24.3849,VALID,6,VALID,0,
2012-06-03, 01:49:04,VALID,1001.06,VALID,0,VALID,94.0107,VALID,0,VALID,24.383,VALID,6,VALID,0,
2012-06-03, 01:50:04,VALID,1001.08,VALID,0,VALID,94.0183,VALID,0,VALID,24.4043,VALID,6,VALID,0,
2012-06-03, 01:51:04,VALID,1001.06,VALID,0,VALID,94.0031,VALID,0,VALID,24.4025,VALID,6,VALID,0,
2012-06-03, 01:52:04,VALID,1001.06,VALID,0,VALID,93.9802,VALID,0,VALID,24.3849,VALID,6,VALID,0,
2012-06-03, 01:53:04,VALID,1001.07,VALID,0,VALID,93.9954,VALID,0,VALID,24.4062,VALID,6,VALID,0,
2012-06-03, 01:54:04,VALID,1001.02,VALID,0,VALID,94.0794,VALID,0,VALID,24.383,VALID,6,VALID,0,
2012-06-03, 01:55:04,VALID,1001.02,VALID,0,VALID,94.0641,VALID,0,VALID,24.4043,VALID,6,VALID,0,
2012-06-03, 01:56:04,VALID,1001,VALID,0,VALID,94.0717,VALID,0,VALID,24.383,VALID,6,VALID,0,
2012-06-03, 01:57:04,VALID,1001,VALID,0,VALID,94.0946,VALID,0,VALID,24.4238,VALID,6,VALID,0,
2012-06-03, 01:58:04,VALID,1000.98,VALID,0,VALID,94.0794,VALID,0,VALID,24.4238,VALID,6,VALID,0,
2012-06-03, 01:59:04,VALID,1001.01,VALID,0,VALID,94.0794,VALID,0,VALID,24.383,VALID,6,VALID,0,
2012-06-03, 02:00:04,VALID,1000.98,VALID,0,VALID,94.1099,VALID,0,VALID,24.4238,VALID,6,VALID,0,
2012-06-03, 02:01:04,VALID,1001,VALID,0,VALID,94.0717,VALID,0,VALID,24.4238,VALID,6,VALID,0,
2012-06-03, 02:02:04,VALID,1001,VALID,0,VALID,94.0259,VALID,0,VALID,24.4043,VALID,6,VALID,0,
2012-06-03, 02:03:04,VALID,1001.01,VALID,0,VALID,94.0641,VALID,0,VALID,24.4238,VALID,6,VALID,0,
2012-06-03, 02:04:04,VALID,1001.01,VALID,0,VALID,94.0488,VALID,0,VALID,24.4025,VALID,6,VALID,0,
2012-06-03, 02:05:04,VALID,1000.99,VALID,0,VALID,94.0107,VALID,0,VALID,24.4043,VALID,6,VALID,0,
2012-06-03, 02:06:04,VALID,1000.96,VALID,0,VALID,93.9878,VALID,0,VALID,24.3849,VALID,6,VALID,0,
2012-06-03, 02:07:04,VALID,1000.95,VALID,0,VALID,93.9954,VALID,0,VALID,24.3849,VALID,6,VALID,0,
2012-06-03, 02:08:04,VALID,1000.93,VALID,0,VALID,93.9497,VALID,0,VALID,24.3849,VALID,6,VALID,0,
2012-06-03, 02:09:04,VALID,1000.91,VALID,0,VALID,93.9954,VALID,0,VALID,24.3849,VALID,6,VALID,0,
2012-06-03, 02:10:04,VALID,1000.91,VALID,0,VALID,94.0336,VALID,0,VALID,24.3849,VALID,6,VALID,0,
2012-06-03, 02:11:04,VALID,1000.9,VALID,0,VALID,93.9954,VALID,0,VALID,24.3849,VALID,6,VALID,0,
2012-06-03, 02:12:04,VALID,1000.92,VALID,0,VALID,94.0031,VALID,0,VALID,24.3849,VALID,6,VALID,0,
2012-06-03, 02:13:04,VALID,1000.89,VALID,0,VALID,94.0107,VALID,0,VALID,24.3849,VALID,6,VALID,0,
2012-06-03, 02:14:04,VALID,1000.89,VALID,0,VALID,93.9878,VALID,0,VALID,24.3654,VALID,360,VALID,0.0503906,
2012-06-03, 02:15:04,VALID,1000.88,VALID,0,VALID,93.9725,VALID,0,VALID,24.3654,VALID,345,VALID,0.404687,
2012-06-03, 02:16:04,VALID,1000.86,VALID,0,VALID,93.9649,VALID,0,VALID,24.3849,VALID,345,VALID,0.28125,
2012-06-03, 02:17:04,VALID,1000.84,VALID,0,VALID,93.942,VALID,0,VALID,24.3654,VALID,345,VALID,0,
2012-06-03, 02:18:04,VALID,1000.84,VALID,0,VALID,93.9497,VALID,0,VALID,24.3867,VALID,344,VALID,0,
2012-06-03, 02:19:04,VALID,1000.85,VALID,0,VALID,93.8963,VALID,0,VALID,24.3867,VALID,345,VALID,0,
2012-06-03, 02:20:04,VALID,1000.81,VALID,0,VALID,93.9115,VALID,0,VALID,24.3654,VALID,345,VALID,0,
2012-06-03, 02:21:04,VALID,1000.82,VALID,0,VALID,94.0336,VALID,0,VALID,24.3849,VALID,344,VALID,0,
2012-06-03, 02:22:04,VALID,1000.81,VALID,0,VALID,94.0183,VALID,0,VALID,24.3849,VALID,345,VALID,0,
2012-06-03, 02:23:04,VALID,1000.79,VALID,0,VALID,93.8963,VALID,0,VALID,24.3654,VALID,345,VALID,0,
2012-06-03, 02:24:04,VALID,1000.77,VALID,0,VALID,93.9191,VALID,0,VALID,24.3636,VALID,344,VALID,0,
2012-06-03, 02:25:04,VALID,1000.78,VALID,0,VALID,93.9497,VALID,0,VALID,24.3849,VALID,345,VALID,0,
2012-06-03, 02:26:04,VALID,1000.75,VALID,0,VALID,93.881,VALID,0,VALID,24.3849,VALID,345,VALID,0,
2012-06-03, 02:27:04,VALID,1000.75,VALID,0,VALID,93.881,VALID,0,VALID,24.3849,VALID,345,VALID,0,
2012-06-03, 02:28:04,VALID,1000.73,VALID,0,VALID,93.8963,VALID,0,VALID,24.3636,VALID,345,VALID,0,
2012-06-03, 02:29:04,VALID,1000.71,VALID,0,VALID,93.942,VALID,0,VALID,24.383,VALID,345,VALID,0,
2012-06-03, 02:30:04,VALID,1000.73,VALID,0,VALID,93.9802,VALID,0,VALID,24.4043,VALID,345,VALID,0,
2012-06-03, 02:31:04,VALID,1000.69,VALID,0,VALID,94.0183,VALID,0,VALID,24.4433,VALID,344,VALID,0.644141,
2012-06-03, 02:32:04,VALID,1000.7,VALID,0,VALID,94.0107,VALID,0,VALID,24.4238,VALID,344,VALID,0.419141,
2012-06-03, 02:33:04,VALID,1000.69,VALID,0,VALID,94.0107,VALID,0,VALID,24.4433,VALID,344,VALID,0.373828,
2012-06-03, 02:34:04,VALID,1000.69,VALID,0,VALID,93.9954,VALID,0,VALID,24.4646,VALID,344,VALID,0.0582031,
2012-06-03, 02:35:04,VALID,1000.71,VALID,0,VALID,93.9954,VALID,0,VALID,24.4628,VALID,344,VALID,0.350391,
2012-06-03, 02:36:04,VALID,1000.68,VALID,0,VALID,93.9115,VALID,0,VALID,24.4433,VALID,344,VALID,0.366016,
2012-06-03, 02:37:04,VALID,1000.72,VALID,0,VALID,93.8886,VALID,0,VALID,24.4628,VALID,344,VALID,0.384375,
2012-06-03, 02:38:04,VALID,1000.71,VALID,0,VALID,93.8123,VALID,0,VALID,24.4433,VALID,344,VALID,0.305469,
2012-06-03, 02:39:04,VALID,1000.68,VALID,0,VALID,93.8734,VALID,0,VALID,24.422,VALID,344,VALID,0.478516,
2012-06-03, 02:40:04,VALID,1000.68,VALID,0,VALID,93.8429,VALID,0,VALID,24.4238,VALID,344,VALID,0.382813,
2012-06-03, 02:41:04,VALID,1000.69,VALID,0,VALID,93.82,VALID,0,VALID,24.383,VALID,344,VALID,0.256641,
2012-06-03, 02:42:04,VALID,1000.69,VALID,0,VALID,93.7818,VALID,0,VALID,24.3636,VALID,344,VALID,0,
2012-06-03, 02:43:04,VALID,1000.69,VALID,0,VALID,93.8505,VALID,0,VALID,24.3441,VALID,344,VALID,0,
2012-06-03, 02:44:04,VALID,1000.7,VALID,0,VALID,93.942,VALID,0,VALID,24.3441,VALID,344,VALID,0,
2012-06-03, 02:45:04,VALID,1000.68,VALID,0,VALID,93.9802,VALID,0,VALID,24.3441,VALID,346,VALID,0,
2012-06-03, 02:46:04,VALID,1000.7,VALID,0,VALID,94.0946,VALID,0,VALID,24.4043,VALID,351,VALID,0,
2012-06-03, 02:47:04,VALID,1000.67,VALID,0,VALID,94.1175,VALID,0,VALID,24.4043,VALID,351,VALID,0,
2012-06-03, 02:48:04,VALID,1000.68,VALID,0,VALID,94.1404,VALID,0,VALID,24.4025,VALID,351,VALID,0,
2012-06-03, 02:49:04,VALID,1000.65,VALID,0,VALID,94.1633,VALID,0,VALID,24.4238,VALID,351,VALID,0,
2012-06-03, 02:50:04,VALID,1000.63,VALID,0,VALID,94.0641,VALID,0,VALID,24.3849,VALID,351,VALID,0,
2012-06-03, 02:51:04,VALID,1000.62,VALID,0,VALID,94.0946,VALID,0,VALID,24.3636,VALID,351,VALID,0,
2012-06-03, 02:52:04,VALID,1000.6,VALID,0,VALID,94.148,VALID,0,VALID,24.3849,VALID,351,VALID,0,
2012-06-03, 02:53:04,VALID,1000.61,VALID,0,VALID,94.1862,VALID,0,VALID,24.3849,VALID,351,VALID,0,
2012-06-03, 02:54:04,VALID,1000.61,VALID,0,VALID,94.2319,VALID,0,VALID,24.383,VALID,351,VALID,0,
2012-06-03, 02:55:04,VALID,1000.62,VALID,0,VALID,94.2319,VALID,0,VALID,24.383,VALID,351,VALID,0,
2012-06-03, 02:56:04,VALID,1000.61,VALID,0,VALID,94.2624,VALID,0,VALID,24.4043,VALID,351,VALID,0,
2012-06-03, 02:57:04,VALID,1000.62,VALID,0,VALID,94.2548,VALID,0,VALID,24.383,VALID,351,VALID,0,
2012-06-03, 02:58:04,VALID,1000.64,VALID,0,VALID,94.2167,VALID,0,VALID,24.3849,VALID,351,VALID,0,
2012-06-03, 02:59:04,VALID,1000.63,VALID,0,VALID,94.1556,VALID,0,VALID,24.3654,VALID,351,VALID,0,
2012-06-03, 03:00:04,VALID,1000.66,VALID,0,VALID,94.1404,VALID,0,VALID,24.3246,VALID,351,VALID,0,
2012-06-03, 03:01:04,VALID,1000.65,VALID,0,VALID,94.1785,VALID,0,VALID,24.3459,VALID,351,VALID,0,
2012-06-03, 03:02:04,VALID,1000.65,VALID,0,VALID,94.2014,VALID,0,VALID,24.3246,VALID,351,VALID,0,
2012-06-03, 03:03:04,VALID,1000.68,VALID,0,VALID,94.209,VALID,0,VALID,24.3052,VALID,351,VALID,0,
2012-06-03, 03:04:04,VALID,1000.67,VALID,0,VALID,94.2014,VALID,0,VALID,24.307,VALID,351,VALID,0,
2012-06-03, 03:05:04,VALID,1000.68,VALID,0,VALID,94.1938,VALID,0,VALID,24.307,VALID,351,VALID,0,
2012-06-03, 03:06:04,VALID,1000.69,VALID,0,VALID,94.1785,VALID,0,VALID,24.2662,VALID,351,VALID,0,
2012-06-03, 03:07:04,VALID,1000.69,VALID,0,VALID,94.1556,VALID,0,VALID,24.2699,VALID,351,VALID,0,
2012-06-03, 03:08:04,VALID,1000.72,VALID,0,VALID,94.1785,VALID,0,VALID,24.2291,VALID,351,VALID,0,
2012-06-03, 03:09:04,VALID,1000.7,VALID,0,VALID,94.2014,VALID,0,VALID,24.2486,VALID,351,VALID,0,
2012-06-03, 03:10:04,VALID,1000.69,VALID,0,VALID,94.209,VALID,0,VALID,24.2291,VALID,351,VALID,0,
2012-06-03, 03:11:04,VALID,1000.7,VALID,0,VALID,94.1709,VALID,0,VALID,24.1902,VALID,351,VALID,0,
2012-06-03, 03:12:04,VALID,1000.67,VALID,0,VALID,94.3082,VALID,0,VALID,24.2078,VALID,351,VALID,0,
2012-06-03, 03:13:04,VALID,1000.68,VALID,0,VALID,94.3616,VALID,0,VALID,24.2291,VALID,351,VALID,0,
2012-06-03, 03:14:04,VALID,1000.66,VALID,0,VALID,94.3692,VALID,0,VALID,24.2273,VALID,351,VALID,0,
2012-06-03, 03:15:04,VALID,1000.66,VALID,0,VALID,94.4455,VALID,0,VALID,24.2662,VALID,351,VALID,0,
2012-06-03, 03:16:04,VALID,1000.67,VALID,0,VALID,94.4379,VALID,0,VALID,24.2468,VALID,351,VALID,0,
2012-06-03, 03:17:04,VALID,1000.61,VALID,0,VALID,94.415,VALID,0,VALID,24.2681,VALID,351,VALID,0,
2012-06-03, 03:18:04,VALID,1000.63,VALID,0,VALID,94.3845,VALID,0,VALID,24.2486,VALID,351,VALID,0,
2012-06-03, 03:19:04,VALID,1000.6,VALID,0,VALID,94.354,VALID,0,VALID,24.2078,VALID,351,VALID,0,
2012-06-03, 03:20:04,VALID,1000.61,VALID,0,VALID,94.3006,VALID,0,VALID,24.1689,VALID,351,VALID,0,
2012-06-03, 03:21:04,VALID,1000.59,VALID,0,VALID,94.3311,VALID,0,VALID,24.1902,VALID,351,VALID,0,
2012-06-03, 03:22:04,VALID,1000.6,VALID,0,VALID,94.4684,VALID,0,VALID,24.2078,VALID,351,VALID,0,
2012-06-03, 03:23:04,VALID,1000.6,VALID,0,VALID,94.5066,VALID,0,VALID,24.2486,VALID,351,VALID,0,
2012-06-03, 03:24:04,VALID,1000.59,VALID,0,VALID,94.5066,VALID,0,VALID,24.2468,VALID,351,VALID,0,
2012-06-03, 03:25:04,VALID,1000.59,VALID,0,VALID,94.4837,VALID,0,VALID,24.2486,VALID,351,VALID,0,
2012-06-03, 03:26:04,VALID,1000.61,VALID,0,VALID,94.4608,VALID,0,VALID,24.2078,VALID,351,VALID,0,
2012-06-03, 03:27:04,VALID,1000.58,VALID,0,VALID,94.4455,VALID,0,VALID,24.1884,VALID,351,VALID,0,
2012-06-03, 03:28:04,VALID,1000.63,VALID,0,VALID,94.3998,VALID,0,VALID,24.1689,VALID,351,VALID,0,
2012-06-03, 03:29:04,VALID,1000.61,VALID,0,VALID,94.4074,VALID,0,VALID,24.1494,VALID,351,VALID,0,
2012-06-03, 03:30:04,VALID,1000.61,VALID,0,VALID,94.3921,VALID,0,VALID,24.1513,VALID,351,VALID,0,
2012-06-03, 03:31:04,VALID,1000.61,VALID,0,VALID,94.4532,VALID,0,VALID,24.13,VALID,351,VALID,0,
2012-06-03, 03:32:04,VALID,1000.62,VALID,0,VALID,94.415,VALID,0,VALID,24.1105,VALID,351,VALID,0,
2012-06-03, 03:33:04,VALID,1000.61,VALID,0,VALID,94.4074,VALID,0,VALID,24.1531,VALID,351,VALID,0,
2012-06-03, 03:34:04,VALID,1000.64,VALID,0,VALID,94.4608,VALID,0,VALID,24.1318,VALID,351,VALID,0,
2012-06-03, 03:35:04,VALID,1000.62,VALID,0,VALID,94.6057,VALID,0,VALID,24.1689,VALID,351,VALID,0,
2012-06-03, 03:36:04,VALID,1000.62,VALID,0,VALID,94.6591,VALID,0,VALID,24.2291,VALID,351,VALID,0,
2012-06-03, 03:37:04,VALID,1000.63,VALID,0,VALID,94.6744,VALID,0,VALID,24.2486,VALID,351,VALID,0,
2012-06-03, 03:38:04,VALID,1000.64,VALID,0,VALID,94.6973,VALID,0,VALID,24.2875,VALID,351,VALID,0,
2012-06-03, 03:39:04,VALID,1000.65,VALID,0,VALID,94.6134,VALID,0,VALID,24.2681,VALID,351,VALID,0,
2012-06-03, 03:40:04,VALID,1000.64,VALID,0,VALID,94.6057,VALID,0,VALID,24.2468,VALID,351,VALID,0,
2012-06-03, 03:41:04,VALID,1000.64,VALID,0,VALID,94.5829,VALID,0,VALID,24.2078,VALID,351,VALID,0,
2012-06-03, 03:42:04,VALID,1000.64,VALID,0,VALID,94.5218,VALID,0,VALID,24.1884,VALID,351,VALID,0,
2012-06-03, 03:43:04,VALID,1000.66,VALID,0,VALID,94.4913,VALID,0,VALID,24.2115,VALID,351,VALID,0,
2012-06-03, 03:44:04,VALID,1000.66,VALID,0,VALID,94.5676,VALID,0,VALID,24.1884,VALID,351,VALID,0,
2012-06-03, 03:45:04,VALID,1000.64,VALID,0,VALID,94.5523,VALID,0,VALID,24.2097,VALID,351,VALID,0,
2012-06-03, 03:46:04,VALID,1000.64,VALID,0,VALID,94.6057,VALID,0,VALID,24.2078,VALID,351,VALID,0,
2012-06-03, 03:47:04,VALID,1000.62,VALID,0,VALID,94.5981,VALID,0,VALID,24.2273,VALID,351,VALID,0,
2012-06-03, 03:48:04,VALID,1000.59,VALID,0,VALID,94.6057,VALID,0,VALID,24.2291,VALID,351,VALID,0,
2012-06-03, 03:49:04,VALID,1000.59,VALID,0,VALID,94.6057,VALID,0,VALID,24.2078,VALID,351,VALID,0,
2012-06-03, 03:50:04,VALID,1000.61,VALID,0,VALID,94.6286,VALID,0,VALID,24.2273,VALID,351,VALID,0,
2012-06-03, 03:51:04,VALID,1000.59,VALID,0,VALID,94.6057,VALID,0,VALID,24.2486,VALID,351,VALID,0,
2012-06-03, 03:52:04,VALID,1000.6,VALID,0,VALID,94.5523,VALID,0,VALID,24.1884,VALID,352,VALID,0,
2012-06-03, 03:53:04,VALID,1000.61,VALID,0,VALID,94.56,VALID,0,VALID,24.1902,VALID,354,VALID,0,
2012-06-03, 03:54:04,VALID,1000.6,VALID,0,VALID,94.6134,VALID,0,VALID,24.2078,VALID,354,VALID,0,
2012-06-03, 03:55:04,VALID,1000.61,VALID,0,VALID,94.5981,VALID,0,VALID,24.2078,VALID,354,VALID,0,
2012-06-03, 03:56:04,VALID,1000.61,VALID,0,VALID,94.621,VALID,0,VALID,24.2078,VALID,355,VALID,0,
2012-06-03, 03:57:04,VALID,1000.6,VALID,0,VALID,94.5981,VALID,0,VALID,24.2097,VALID,355,VALID,0,
2012-06-03, 03:58:04,VALID,1000.58,VALID,0,VALID,94.6057,VALID,0,VALID,24.2097,VALID,355,VALID,0,
2012-06-03, 03:59:04,VALID,1000.58,VALID,0,VALID,94.5981,VALID,0,VALID,24.1884,VALID,355,VALID,0,